Find WHDW 07-07

NORAD ID: 65112 Int'l Des: 2025-168 Owner: ZXW Country: CN Constellation: xingwang operational
LEOCIRCULAR

实时位置

正在加载3D地球...

关于 WHDW 07-07

正在加载描述...

即将过境

Passes for default location (London). Set your location on the main map for personalized predictions.

高度历史

Loading altitude history...

两行轨道根数

1 65112U 25168G 26105.79533809 -.00000074 00000-0 10761-3 0 9995
2 65112 49.9985 189.2941 0011841 265.2355 94.7165 13.29324833 34397
Epoch: Apr 15, 2026 • Age: 17 hours

当前状态

高度 1163.6 km
速度 7.27 km/s
星下点 49.69°N, 94.74°W
发射日期 Aug 4, 2025
运行时间 0.6 years
类型 other

技术详情

分类 Payload
质量 800.00 kg
干质量 800.00 kg
总质量 800.00 kg
长度 3.00 m
直径 1.00 m
跨度 10.00 m
形状 Box + 2 Pan
制造商 YINNT
平台类型 Xingwang Y
阶段状态 In Orbit
所有者/国家 ZXW/CN

Most Searched